Weather History for Cadillac, MI

Change the Weather History Date:

Thursday, October 10, 2013

  Actual Average Record
Temperature  
Mean Temperature 52 °F -  
Max Temperature 71 °F 55 °F 82 °F (1949)
Min Temperature 33 °F 35 °F 17 °F (1989)
Degree Days  
Heating Degree Days 13    
Growing Degree Days 2 (Base 50)    
Moisture  
Dew Point 40 °F    
Average Humidity 71    
Maximum Humidity 93    
Minimum Humidity 34    
Precipitation  
Precipitation 0.00 in - - ()
Sea Level Pressure  
Sea Level Pressure 30.18 in    
Wind  
Wind Speed 1 mph (SE)    
Max Wind Speed 8 mph    
Max Gust Speed -    
Visibility 10 miles    
Events      
Averages and records for this station are not official NWS values.
T = Trace of Precipitation, MM = Missing Value Source: NWS Daily Summary

Daily Weather History Graph

Daily Weather History Graph

Search for Another Location

Airport:

Trip Planner

Search our weather history database for the weather conditions in past years. The results will help you decide how hot, cold, wet, or windy it might be!

Date:

Astronomy

Oct. 10, 2013 Rise Set
Actual Time 7:50 AM EDT 7:05 PM EDT
Civil Twilight 7:21 AM EDT 7:34 PM EDT
Nautical Twilight 6:48 AM EDT 8:08 PM EDT
Astronomical Twilight 6:14 AM EDT 8:41 PM EDT
Moon 1:50 PM EDT (10/10) 11:34 PM EDT (10/10)
Length of Visible Light 12h 13m
Length of Day
11h 15m
Waxing Crescent, 35% of the Moon is Illuminated
Oct 10
Waxing Crescent
Oct 11
First Quarter
Oct 18
Full
Oct 26
Last Quarter
Nov 3
New

Hourly Weather History & Observations

Time (EDT) Temp. Windchill Dew Point Humidity Pressure Visibility Wind Dir Wind Speed Gust Speed Precip Events Conditions
12:14 AM 41.4 °F - 39.2 °F 92% 30.21 in 2.0 mi Calm Calm - N/A   Clear
12:35 AM 41.2 °F - 39.2 °F 93% 30.21 in 7.0 mi Calm Calm - N/A   Clear
12:55 AM 41.2 °F - 39.2 °F 93% 30.21 in 7.0 mi Calm Calm - N/A   Clear
1:14 AM 41.2 °F - 39.2 °F 93% 30.21 in 10.0 mi Calm Calm - N/A   Clear
1:35 AM 39.2 °F - 37.0 °F 92% 30.20 in 10.0 mi Calm Calm - N/A   Clear
1:55 AM 38.7 °F - 36.5 °F 92% 30.21 in 10.0 mi Calm Calm - N/A   Clear
2:14 AM 39.6 °F - 37.4 °F 92% 30.20 in 10.0 mi Calm Calm - N/A   Clear
2:35 AM 38.7 °F - 36.5 °F 92% 30.20 in 10.0 mi Calm Calm - N/A   Clear
2:55 AM 38.7 °F - 36.5 °F 92% 30.20 in 10.0 mi Calm Calm - N/A   Clear
3:14 AM 38.7 °F - 36.5 °F 92% 30.20 in 10.0 mi Calm Calm - N/A   Clear
3:35 AM 38.7 °F - 36.5 °F 92% 30.20 in 10.0 mi Calm Calm - N/A   Clear
3:55 AM 37.8 °F - 35.6 °F 92% 30.19 in 5.0 mi Calm Calm - N/A   Clear
4:14 AM 36.1 °F - 34.0 °F 92% 30.19 in 10.0 mi Calm Calm - N/A   Clear
4:35 AM 36.1 °F - 34.0 °F 92% 30.20 in 10.0 mi Calm Calm - N/A   Clear
4:55 AM 36.3 °F - 34.2 °F 92% 30.20 in 10.0 mi Calm Calm - N/A   Clear
5:14 AM 37.4 °F - 35.2 °F 92% 30.20 in 10.0 mi Calm Calm - N/A   Clear
5:35 AM 36.1 °F - 34.0 °F 92% 30.20 in 10.0 mi Calm Calm - N/A   Clear
5:55 AM 36.1 °F - 34.0 °F 92% 30.21 in 10.0 mi Calm Calm - N/A   Clear
6:14 AM 36.1 °F - 34.0 °F 92% 30.21 in 10.0 mi Calm Calm - N/A   Clear
6:35 AM 36.1 °F - 34.0 °F 92% 30.20 in 10.0 mi Calm Calm - N/A   Clear
6:55 AM 36.1 °F - 34.0 °F 92% 30.21 in 10.0 mi Calm Calm - N/A   Clear
7:14 AM 36.1 °F - 34.0 °F 92% 30.21 in 10.0 mi Calm Calm - N/A   Clear
7:35 AM 33.8 °F - 32.0 °F 93% 30.22 in 10.0 mi Calm Calm - N/A   Clear
7:55 AM 35.4 °F - 33.1 °F 91% 30.22 in 10.0 mi Calm Calm - N/A   Clear
8:14 AM 36.1 °F - 34.0 °F 92% 30.22 in 10.0 mi Calm Calm - N/A   Clear
8:35 AM 36.1 °F - 34.0 °F 92% 30.22 in 10.0 mi Calm Calm - N/A   Clear
8:55 AM 39.2 °F - 37.2 °F 93% 30.22 in 10.0 mi Calm Calm - N/A   Clear
9:14 AM 43.0 °F - 40.6 °F 91% 30.22 in 10.0 mi Calm Calm - N/A   Clear
9:35 AM 46.8 °F - 43.3 °F 88% 30.21 in 10.0 mi Calm Calm - N/A   Clear
9:55 AM 51.4 °F - 46.0 °F 82% 30.21 in 10.0 mi Calm Calm - N/A   Clear
10:14 AM 54.0 °F - 46.6 °F 76% 30.21 in 10.0 mi Calm Calm - N/A   Clear
10:35 AM 57.4 °F - 47.5 °F 70% 30.21 in 10.0 mi Calm Calm - N/A   Clear
10:55 AM 61.7 °F - 47.5 °F 60% 30.21 in 10.0 mi Calm Calm - N/A   Clear
11:14 AM 61.9 °F - 45.7 °F 55% 30.21 in 10.0 mi Calm Calm - N/A   Clear
11:35 AM 63.1 °F - 45.0 °F 51% 30.21 in 10.0 mi SSE 3.5 mph - N/A   Clear
11:55 AM 64.0 °F - 45.5 °F 51% 30.20 in 10.0 mi Calm Calm - N/A   Clear
12:14 PM 65.3 °F - 44.1 °F 46% 30.20 in 10.0 mi SE 5.8 mph - N/A   Clear
12:35 PM 66.6 °F - 44.6 °F 45% 30.20 in 10.0 mi ESE 3.5 mph - N/A   Clear
12:55 PM 66.6 °F - 41.0 °F 39% 30.19 in 10.0 mi East 6.9 mph - N/A   Clear
1:14 PM 67.3 °F - 42.4 °F 40% 30.19 in 10.0 mi ESE 5.8 mph - N/A   Clear
1:35 PM 68.7 °F - 43.0 °F 39% 30.18 in 10.0 mi ESE 6.9 mph - N/A   Clear
1:54 PM 68.9 °F - 41.9 °F 37% 30.18 in 10.0 mi Calm Calm - N/A   Clear
2:15 PM 69.1 °F - 42.1 °F 38% 30.18 in 10.0 mi ESE 8.1 mph - N/A   Clear
2:35 PM 69.1 °F - 41.0 °F 36% 30.17 in 10.0 mi SSE 6.9 mph - N/A   Clear
2:54 PM 70.3 °F - 40.8 °F 34% 30.16 in 10.0 mi SSE 6.9 mph - N/A   Clear
3:15 PM 69.1 °F - 41.5 °F 37% 30.16 in 10.0 mi South 6.9 mph - N/A   Clear
3:35 PM 69.1 °F - 42.4 °F 38% 30.15 in 10.0 mi SE 4.6 mph - N/A   Clear
3:52 PM 70.2 °F - 43.0 °F 37% 30.15 in 10.0 mi SE 4.6 mph - N/A   Clear
4:15 PM 71.6 °F - 42.3 °F 35% 30.14 in 10.0 mi ESE 5.8 mph - N/A   Clear
4:34 PM 71.6 °F - 42.6 °F 35% 30.13 in 10.0 mi South 3.5 mph - N/A   Clear
4:55 PM 71.6 °F - 42.6 °F 35% 30.13 in 10.0 mi SSE 8.1 mph - N/A   Clear
5:15 PM 71.6 °F - 43.3 °F 36% 30.13 in 10.0 mi SE 4.6 mph - N/A   Clear
5:34 PM 69.1 °F - 42.6 °F 38% 30.13 in 10.0 mi ESE 8.1 mph - N/A   Clear
5:55 PM 66.6 °F - 42.8 °F 42% 30.13 in 10.0 mi SE 4.6 mph - N/A   Clear
6:15 PM 65.8 °F - 42.3 °F 42% 30.13 in 10.0 mi SE 5.8 mph - N/A   Clear
6:35 PM 63.3 °F - 43.7 °F 49% 30.13 in 10.0 mi ESE 5.8 mph - N/A   Clear
6:55 PM 60.6 °F - 43.5 °F 53% 30.13 in 10.0 mi ESE 4.6 mph - N/A   Clear
7:15 PM 61.7 °F - 43.3 °F 51% 30.13 in 10.0 mi ESE 5.8 mph - N/A   Clear
7:35 PM 57.2 °F - 43.5 °F 60% 30.13 in 10.0 mi ESE 3.5 mph - N/A   Clear
7:55 PM 56.5 °F - 43.9 °F 63% 30.13 in 10.0 mi Calm Calm - N/A   Clear
8:14 PM 51.4 °F - 43.7 °F 75% 30.13 in 10.0 mi Calm Calm - N/A   Clear
8:35 PM 51.4 °F - 44.1 °F 76% 30.13 in 10.0 mi Calm Calm - N/A   Clear
8:55 PM 51.4 °F - 45.3 °F 80% 30.13 in 10.0 mi Calm Calm - N/A   Clear
9:14 PM 46.0 °F - 41.9 °F 85% 30.13 in 10.0 mi Calm Calm - N/A   Clear
9:35 PM 46.6 °F - 42.4 °F 85% 30.13 in 10.0 mi Calm Calm - N/A   Clear
9:55 PM 44.4 °F - 41.0 °F 88% 30.14 in 10.0 mi Calm Calm - N/A   Clear
10:14 PM 44.1 °F 42.5 °F 41.0 °F 89% 30.14 in 10.0 mi NNW 3.5 mph - N/A   Clear
10:35 PM 44.6 °F - 41.4 °F 88% 30.14 in 10.0 mi Calm Calm - N/A   Clear
10:55 PM 43.9 °F - 41.2 °F 90% 30.14 in 10.0 mi Calm Calm - N/A   Clear
11:14 PM 43.3 °F - 40.8 °F 91% 30.13 in 10.0 mi Calm Calm - N/A   Clear
11:35 PM 42.8 °F - 40.3 °F 91% 30.13 in 10.0 mi Calm Calm - N/A   Clear
11:55 PM 41.2 °F - 38.7 °F 91% 30.13 in 10.0 mi Calm Calm - N/A   Clear